Sandspit, British Columbia

9:56 AM PST on February 21, 2017 (GMT -0800)
Sandspit

Weather History for CYZP - January, 2014

Change the Weather History Date:

Monday, January 27, 2014

  Actual Average Record
Temperature  
Mean Temperature 44 °F -  
Max Temperature 46 °F 43 °F 52 °F (2016)
Min Temperature 41 °F 34 °F 24 °F (2004)
Degree Days  
Heating Degree Days 22    
Moisture  
Dew Point 43 °F    
Average Humidity 95    
Maximum Humidity 100    
Minimum Humidity 86    
Precipitation  
Precipitation 0.00 in 0.17 in - ()
Sea Level Pressure  
Sea Level Pressure 29.99 in    
Wind  
Wind Speed 17 mph ()    
Max Wind Speed 26 mph    
Max Gust Speed 32 mph    
Visibility 6.7 miles    
Events Rain    
Averages and records for this station are not official NWS values.
T = Trace of Precipitation, MM = Missing Value Source: Averaged Metar Reports

Daily Weather History Graph

Daily Weather History Graph

Search for Another Location

Airport or City:

Trip Planner

Search our weather history database for the weather conditions in past years. The results will help you decide how hot, cold, wet, or windy it might be!

Date:

Astronomy

Jan. 27, 2014 Rise Set
Actual Time 8:39 AM PST 5:21 PM PST
Civil Twilight 8:00 AM PST 6:00 PM PST
Nautical Twilight 7:18 AM PST 6:42 PM PST
Astronomical Twilight 6:37 AM PST 7:23 PM PST
Moon 5:34 AM PST (1/27) 2:07 PM PST (1/27)
Length of Visible Light 10h 00m
Length of Day
8h 42m
Waning Crescent, 14% of the Moon is Illuminated
Jan 27
Waning Crescent
Jan 30
New
Feb 6
First Quarter
Feb 14
Full
Feb 22
Last Quarter

Hourly Weather History & Observations

Time (PST) Temp. Windchill Dew Point Humidity Pressure Visibility Wind Dir Wind Speed Gust Speed Precip Events Conditions
12:00 AM 41.0 °F 32.2 °F 41.0 °F 100% 30.01 in 9.0 mi SE 18.4 mph - N/A   Overcast
1:00 AM 42 °F - 41 °F 94% 29.98 in - SE 16.1 mph - -  
1:00 AM 42.8 °F 34.0 °F 41.0 °F 93% 29.99 in 9.0 mi SE 20.7 mph - N/A   Overcast
1:01 AM 42.8 °F 34.0 °F 41.0 °F 93% 29.99 in 9.0 mi SE 20.7 mph - N/A   Overcast
2:00 AM 42.8 °F 34.3 °F 41.0 °F 93% 30.00 in 9.0 mi SE 19.6 mph - N/A   Overcast
3:00 AM 42.8 °F 34.0 °F 41.0 °F 93% 30.00 in 9.0 mi SE 20.7 mph - N/A   Mostly Cloudy
3:04 AM 42.8 °F 34.5 °F 41.0 °F 93% 30.00 in 9.0 mi SE 18.4 mph 25.3 mph N/A   Scattered Clouds
4:00 AM 44 °F - 42 °F 89% 29.99 in - SE 12.7 mph - -  
4:00 AM 42.8 °F 35.4 °F 41.0 °F 93% 30.00 in 9.0 mi SE 15.0 mph 21.9 mph N/A   Scattered Clouds
4:11 AM 42.8 °F 35.1 °F 41.0 °F 93% 30.00 in 9.0 mi SE 16.1 mph - N/A   Mostly Cloudy
5:00 AM 44.6 °F 37.4 °F 42.8 °F 93% 29.99 in 9.0 mi SE 16.1 mph - N/A   Overcast
6:00 AM 44.6 °F 37.2 °F 41.0 °F 87% 29.99 in 9.0 mi SE 17.3 mph 24.2 mph N/A   Mostly Cloudy
6:02 AM 42.8 °F 34.5 °F 41.0 °F 93% 29.99 in 9.0 mi SE 18.4 mph 24.2 mph N/A   Mostly Cloudy
7:00 AM 44 °F - 42 °F 90% 29.97 in - SE 11.5 mph - -  
7:00 AM 44.6 °F 38.4 °F 42.8 °F 93% 29.99 in 9.0 mi SE 12.7 mph - N/A   Overcast
7:17 AM 44.6 °F 37.8 °F 42.8 °F 93% 29.99 in 9.0 mi SE 15.0 mph - N/A   Overcast
8:00 AM 44.6 °F 38.1 °F 42.8 °F 93% 29.99 in 9.0 mi SE 13.8 mph - N/A   Overcast
9:00 AM 44.6 °F 37.4 °F 42.8 °F 93% 29.99 in 9.0 mi SE 16.1 mph - N/A   Overcast
10:00 AM 45 °F - 42 °F 86% 29.99 in - SSE 6.9 mph - -  
10:00 AM 44.6 °F 39.7 °F 42.8 °F 93% 30.00 in 9.0 mi SSE 9.2 mph - N/A   Mostly Cloudy
11:00 AM 46.4 °F 39.8 °F 42.8 °F 87% 30.00 in 9.0 mi SSE 16.1 mph - N/A   Overcast
11:50 AM 46.4 °F 40.1 °F 42.8 °F 87% 30.00 in 9.0 mi SE 15.0 mph - N/A Rain Light Rain
12:00 PM 46.4 °F 40.4 °F 42.8 °F 87% 30.00 in 9.0 mi SSE 13.8 mph - N/A Rain Light Rain
12:03 PM 46.4 °F 40.4 °F 42.8 °F 87% 30.00 in 9.0 mi SSE 13.8 mph - N/A   Mostly Cloudy
12:14 PM 46.4 °F 40.1 °F 42.8 °F 87% 30.00 in 9.0 mi SSE 15.0 mph - N/A Rain Light Rain
1:00 PM 46 °F - 43 °F 86% 29.98 in - SE 13.8 mph - -  
1:00 PM 46.4 °F 39.5 °F 42.8 °F 87% 30.00 in 7.0 mi SE 17.3 mph - N/A Rain Light Rain
2:00 PM 46.4 °F 39.5 °F 44.6 °F 93% 29.99 in 7.0 mi SE 17.3 mph 23.0 mph N/A Rain Light Rain
2:09 PM 46.4 °F 39.2 °F 44.6 °F 93% 29.99 in 8.0 mi SE 18.4 mph 24.2 mph N/A   Overcast
3:00 PM 44.6 °F 36.6 °F 44.6 °F 100% 29.99 in 6.0 mi SE 19.6 mph 25.3 mph N/A   Overcast
3:01 PM 44.6 °F 36.6 °F 44.6 °F 100% 29.99 in 6.0 mi SE 19.6 mph 25.3 mph N/A   Overcast
3:13 PM 44.6 °F 36.4 °F 44.6 °F 100% 29.99 in 5.0 mi SE 20.7 mph 26.5 mph N/A   Overcast
3:19 PM 44.6 °F 36.4 °F 44.6 °F 100% 29.98 in 4.0 mi SE 20.7 mph 26.5 mph N/A Rain Light Rain
3:56 PM 44.6 °F 36.1 °F 44.6 °F 100% 29.98 in 5.0 mi SE 21.9 mph 27.6 mph N/A   Overcast
4:00 PM 45 °F - 44 °F 95% 29.97 in - SE 17.3 mph - -  
4:00 PM 44.6 °F 35.9 °F 44.6 °F 100% 29.98 in 5.0 mi SE 23.0 mph 28.8 mph N/A   Overcast
4:49 PM 44.6 °F 36.6 °F 44.6 °F 100% 29.99 in 4.0 mi ESE 19.6 mph 25.3 mph N/A Rain Light Rain
5:00 PM 44.6 °F 36.6 °F 44.6 °F 100% 29.99 in 4.0 mi SE 19.6 mph 25.3 mph N/A Rain Light Rain
5:48 PM 44.6 °F 35.9 °F 44.6 °F 100% 29.99 in 5.0 mi SE 23.0 mph - N/A   Overcast
5:59 PM 44.6 °F 35.7 °F 44.6 °F 100% 29.99 in 5.0 mi SE 24.2 mph - N/A Rain Light Rain
6:00 PM 44.6 °F 35.7 °F 44.6 °F 100% 29.99 in 5.0 mi SE 24.2 mph - N/A Rain Light Rain
6:03 PM 44.6 °F 35.9 °F 44.6 °F 100% 29.98 in 6.0 mi SE 23.0 mph - N/A Rain Light Rain
6:21 PM 44.6 °F 36.1 °F 44.6 °F 100% 29.98 in 5.0 mi SE 21.9 mph 28.8 mph N/A Rain Light Rain
7:00 PM 45 °F - 44 °F 95% 29.98 in - SE 18.4 mph - -  
7:00 PM 44.6 °F 35.9 °F 44.6 °F 100% 29.99 in 3.0 mi SE 23.0 mph 29.9 mph N/A Rain Light Rain
7:17 PM 44.6 °F 36.1 °F 44.6 °F 100% 29.99 in 2.5 mi SE 21.9 mph 27.6 mph N/A Rain Light Rain
7:43 PM 44.6 °F 35.9 °F 44.6 °F 100% 30.00 in 3.0 mi SE 23.0 mph - N/A Rain Light Rain
8:00 PM 44.6 °F 35.9 °F 44.6 °F 100% 29.99 in 5.0 mi SE 23.0 mph 28.8 mph N/A Rain Light Rain
8:29 PM 44.6 °F 35.7 °F 44.6 °F 100% 29.99 in 6.0 mi SE 24.2 mph 29.9 mph N/A Rain Light Rain
8:49 PM 44.6 °F 35.5 °F 44.6 °F 100% 29.99 in 5.0 mi SE 25.3 mph - N/A Rain Light Rain
8:51 PM 44.6 °F 35.3 °F 44.6 °F 100% 29.99 in 5.0 mi SE 26.5 mph - N/A Rain Light Rain
9:00 PM 44.6 °F 35.3 °F 44.6 °F 100% 29.99 in 4.0 mi SE 26.5 mph 32.2 mph N/A Rain Light Rain
10:00 PM 45 °F - 44 °F 93% 29.99 in - SE 18.4 mph - -  
10:00 PM 44.6 °F 35.5 °F 44.6 °F 100% 30.00 in 3.0 mi SE 25.3 mph 32.2 mph N/A Rain Light Rain
10:26 PM 44.6 °F 35.9 °F 44.6 °F 100% 30.01 in 4.0 mi SE 23.0 mph 28.8 mph N/A Rain Light Rain
10:33 PM 44.6 °F 35.7 °F 42.8 °F 93% 30.01 in 6.0 mi SE 24.2 mph - N/A Rain Light Rain
11:00 PM 44.6 °F 36.1 °F 44.6 °F 100% 30.01 in 6.0 mi SE 21.9 mph 28.8 mph N/A Rain Light Rain
11:11 PM 44.6 °F 35.7 °F 44.6 °F 100% 30.01 in 6.0 mi SE 24.2 mph - N/A Rain Light Rain
11:26 PM 44.6 °F 36.1 °F 44.6 °F 100% 30.02 in 5.0 mi SE 21.9 mph 27.6 mph N/A Rain Light Rain